Location: Pine Creek
(45.5072°N, 110.5649°W)
Time: 04:28:45
(UTC+00:00)

Tiangong - Visible Passes

Search period start: 25 January 2022 00:00
Search period end: 04 February 2022 00:00
Orbit: 383 x 386 km, 41.5° (Epoch: 23 January)

Date Brightness Start Highest point End Pass type
(mag) Time Alt. Az. Time Alt. Az. Time Alt. Az.
28 Jan 3.2 02:04:00 10° SSW 02:05:55 17° SSE 02:05:55 17° SSE visible
29 Jan 3.6 01:05:25 10° S 01:06:37 12° SSE 01:07:50 10° SE visible
29 Jan 3.5 02:40:01 10° SW 02:41:18 20° SW 02:41:18 20° SW visible
30 Jan 2.7 01:40:34 10° SW 01:43:12 24° SSE 01:44:26 19° SE visible
31 Jan 2.1 02:16:57 10° WSW 02:19:42 36° S 02:19:42 36° S visible
01 Feb 2.4 01:17:18 10° SW 01:20:09 31° SSE 01:22:44 12° ESE visible
01 Feb 3.6 02:53:40 10° WSW 02:54:56 20° WSW 02:54:56 20° WSW visible
02 Feb 2.0 01:53:51 10° WSW 01:56:51 39° S 01:57:57 28° SE visible
03 Feb 2.5 02:30:38 10° WSW 02:33:10 32° SSW 02:33:10 32° SSW visible
